Flag for Germany Weather past 2 weeks in Goch, North Rhine-Westphalia, Germany

Now
57 °F

Clear.


Feels Like: 57 °F
Forecast: 59 / 76 °F
Wind: 5 mph from Southeast

Location: Niederrhein

Current Time: Sep 17, 2014 at 6:39:45 AM

Latest Report: Sep 17, 2014 at 5:50 AM


Visibility: 10 mi

Pressure: 29.92 "Hg

Humidity: 100%

Dew point: 57 °F

Location of GochLocation

Historic Weather in Goch — Graph

°F

Goch temperature yesterday

Maximum temperature yesterday: 75 °F (at 12:50 PM)
Minimum temperature yesterday: 59 °F (at 4:50 AM)
Average temperature yesterday: 67 °F

Past Weeks' High & Low Weather Summary

 TemperatureHumidityPressure
High75 °F (Sep 4, 5:20 PM)100% (Sep 2, 5:20 AM)30.27 "Hg (Sep 2, 5:20 AM)
Low50 °F (Sep 9, 5:20 AM)43% (Sep 8, 5:20 PM)29.89 "Hg (Sep 6, 5:50 AM)
Average63 °F79%30.09 "Hg
* Reported Sep 2 5:20 AM — Sep 17 5:20 AM, Goch, Weather by CustomWeather, © 2014

Note: Actual official high and low records may vary slightly from our data, if they occured in-between our weather recording intervals... More about our weather records

Advertising

Goch weather history for previous 24 hours

 ConditionsComfort  
Time TempWeatherWind HumidityBarometerVisibility
5:20 AM
Sep 17
59 °FClear.5 mph94%29.92 "Hg10 mi
4:50 AM59 °FClear.6 mph94%29.92 "Hg10 mi
11:50 PM
Sep 16
63 °FClear.3 mph83%29.95 "Hg10 mi
11:20 PM61 °FClear.2 mph88%29.95 "Hg10 mi
10:50 PM61 °FClear.2 mph94%29.95 "Hg10 mi
10:20 PM61 °FClear.2 mph94%29.95 "Hg10 mi
9:50 PM61 °FClear.2 mph94%29.95 "Hg10 mi
9:20 PM63 °FSunny.No wind88%29.95 "Hg10 mi
8:50 PM64 °FSunny.1 mph83%29.95 "Hg10 mi
8:20 PM66 °FSunny.No wind78%29.95 "Hg10 mi
7:50 PM68 °FSunny.No wind73%29.95 "Hg10 mi
7:20 PM72 °FSunny.1 mph65%29.95 "Hg10 mi
6:50 PM73 °FSunny.3 mph61%29.95 "Hg10 mi
6:20 PM75 °FPassing clouds.5 mph57%29.95 "HgN/A
5:50 PM75 °FSunny.3 mph61%29.95 "Hg10 mi
5:20 PM75 °FSunny.2 mph57%29.95 "Hg10 mi
4:50 PM75 °FSunny.3 mph61%29.95 "Hg10 mi
4:20 PM73 °FPassing clouds.2 mph65%29.95 "HgN/A
3:50 PM75 °FPassing clouds.6 mph61%29.95 "HgN/A
3:20 PM75 °FScattered clouds.5 mph61%29.95 "HgN/A
2:50 PM73 °FScattered clouds.5 mph61%29.98 "HgN/A
2:20 PM73 °FScattered clouds.5 mph65%29.98 "HgN/A
1:20 PM75 °FPassing clouds.5 mph61%29.98 "HgN/A
12:50 PM75 °FSunny.3 mph65%29.98 "Hg10 mi
12:20 PM73 °FSunny.2 mph65%29.98 "Hg10 mi
11:50 AM70 °FPassing clouds.5 mph73%30.01 "HgN/A
11:20 AM70 °FPassing clouds.5 mph73%30.01 "HgN/A
10:50 AM68 °FScattered clouds.3 mph83%30.01 "Hg6 mi
10:20 AM68 °FClear.3 mph83%30.01 "Hg5 mi
9:50 AM66 °FClear.2 mph94%30.01 "Hg4 mi
9:20 AM64 °FFog.2 mph94%30.01 "Hg3 mi
8:50 AM63 °FFog.No wind100%30.01 "Hg2 mi
8:20 AM61 °FFog.No wind100%30.01 "Hg2 mi
7:50 AM61 °FFog.No wind100%30.01 "Hg2 mi
7:20 AM59 °FFog.No wind100%30.01 "Hg3 mi
6:50 AM59 °FFog.2 mph100%29.98 "Hg3 mi
6:20 AM59 °FFog.1 mph100%29.98 "Hg3 mi
Weather by CustomWeather, © 2014

See weather overviewHow to use our weather pages